Погода в Сивасе

Турция     39°44′58″N   37°01′08″E
темп.,
°C
ветер,
м/с
пор.,
м/с
влажн.,
%
обл.,
%
осадки,
мм/ч
давл.,
гПа
погр.,
м
29 января, сб
сб2900:00−23в2210090 0.0 103810
03:00−24всв1110090 0.0 10409
06:00−25в1110073 0.0 10409
09:00−22в1110070 0.0 104022
12:00−14в118533 0.0 1034116
15:00−10в118081 0.0 1031121
18:00−15всв1190100 0.0 10339
21:00−17в2293100 0.0 10359
30 января, вс
вс3000:00−18в229888 0.0 103610
03:00−20всв2210071 0.0 103710
06:00−21в2210080 0.0 103610
09:00−15вюв1298100 0.0 103354
12:00−10в228997 0.0 1028155
15:00−7в1287100 0.0 1024195
18:00−9в2295100 0.0 102311
21:00−11вюв2296100 0.0 102511
31 января, пн
пн3100:00−9вюв1196100 0.2 102322
03:00−10юв1196100 0.4 102315
06:00−8ю1296100 2.3 1022113
09:00−7юв1295100 3.1 102389
12:00−5в2289100 0.1 1020272
15:00−3в2290100 0.1 1018264
18:00−4ссв2397100 1.2 1018110
21:00−4с1197100 3.6 101924
1 февраля, вт
вт100:00−6юв119877 1.4 102010
03:00−12всв11100100 1.5 102310
06:00−12всв119897 0.1 102414
09:00−11в119998 0.1 102538
12:00−6в1293100 0.0 1022178
15:00−2юв1286100 0.0 1019272
18:00−7в2294100 0.0 102211
21:00−9в2296100 0.0 102615
2 февраля, ср
ср200:00−13в2299100 0.0 102912
03:00−14в2210089 0.0 103113
06:00−13в32100100 0.0 103026
09:00−10в33100100 0.0 102862
12:00−3вюв3689100 0.0 1022234
15:00+1юв51284100 0.0 1018693
18:00−1юв4585100 0.0 102083
21:000юв61379100 0.0 1019473